Tracking 18673 objects as of 28-June-2017
HD Live streaming from Space Station
objects crossing your sky now

CZ-3A DEB

Track CZ-3A DEB now!


NORAD ID: 35557
Int'l Code: 2007-003R
Perigee: 383.9 km
Apogee: 29,427.0 km
Inclination: 23.1 °
Period: 514.8 minutes
Semi major axis: 21276 km
RCS: 0.1574 m2 (medium)
Launch date: February 2, 2007
Source: People's Republic of China (PRC)
Launch site: Xichang Space Center, China (XSC)

Note: This is SATELLITE DEBRIS
Your satellite tracking list
Your tracking list is empty





NASA's NSSDC Master Catalog

Two Line Element Set (TLE):
1 35557U 07003R   17177.79576672 +.00002485 +00000-0 +38597-2 0  9990
2 35557 023.1025 018.6640 6825180 162.7474 242.8342 02.79739886079725
Source of the keplerian elements: AFSPC